Time,TemperatureF,DewpointF,PressureIn,WindDirection,WindDirectionDegrees,WindSpeedMPH,WindSpeedGustMPH,Humidity,HourlyPrecipIn,Conditions,Clouds,dailyrainin,SoftwareType,DateUTC
2013-01-04 00:02:00,52.0,50.3,30.61,NW,315,1.6,5.4,94,0.00,,,0.00,pywws,2013-01-04 00:02:00,
2013-01-04 00:08:00,52.0,50.0,30.62,West,270,2.2,5.4,93,0.00,,,0.00,pywws,2013-01-04 00:08:00,
2013-01-04 00:13:00,51.8,49.8,30.61,West,270,2.2,5.4,93,0.00,,,0.00,pywws,2013-01-04 00:13:00,
2013-01-04 00:19:00,51.6,49.4,30.62,West,270,0.0,1.6,92,0.00,,,0.00,pywws,2013-01-04 00:19:00,
2013-01-04 00:25:00,51.6,49.4,30.62,South,180,3.1,5.4,92,0.00,,,0.00,pywws,2013-01-04 00:25:00,
2013-01-04 00:30:00,51.6,49.4,30.61,West,270,0.7,3.1,92,0.00,,,0.00,pywws,2013-01-04 00:30:00,
2013-01-04 00:36:00,51.6,49.4,30.61,SW,225,2.2,5.4,92,0.00,,,0.00,pywws,2013-01-04 00:36:00,
2013-01-04 00:41:00,51.4,49.2,30.61,SW,225,0.7,3.8,92,0.00,,,0.00,pywws,2013-01-04 00:41:00,
2013-01-04 00:47:00,51.4,49.2,30.61,SSW,203,2.2,3.8,92,0.00,,,0.00,pywws,2013-01-04 00:47:00,
2013-01-04 00:53:00,51.4,49.5,30.60,West,270,0.0,2.2,93,0.00,,,0.00,pywws,2013-01-04 00:53:00,
2013-01-04 00:58:00,51.4,49.5,30.61,SW,225,0.0,1.6,93,0.00,,,0.00,pywws,2013-01-04 00:58:00,
2013-01-04 01:04:00,51.3,49.3,30.61,SW,225,0.0,3.1,93,0.00,,,0.00,pywws,2013-01-04 01:04:00,
2013-01-04 01:09:00,51.3,49.3,30.60,East,90,3.8,8.3,93,0.00,,,0.00,pywws,2013-01-04 01:09:00,
2013-01-04 01:16:00,51.3,49.3,30.60,SW,225,0.7,3.1,93,0.00,,,0.00,pywws,2013-01-04 01:16:00,
2013-01-04 01:21:00,51.3,49.6,30.61,West,270,2.2,6.0,94,0.00,,,0.00,pywws,2013-01-04 01:21:00,
2013-01-04 01:27:00,51.1,49.4,30.61,North,0,0.0,0.0,94,0.00,,,0.00,pywws,2013-01-04 01:27:00,
2013-01-04 01:33:00,51.1,49.4,30.61,NW,315,0.7,3.8,94,0.00,,,0.00,pywws,2013-01-04 01:33:00,
2013-01-04 01:38:00,51.1,49.4,30.61,SW,225,0.0,0.0,94,0.00,,,0.00,pywws,2013-01-04 01:38:00,
2013-01-04 01:44:00,51.1,49.4,30.61,West,270,0.0,2.2,94,0.00,,,0.00,pywws,2013-01-04 01:44:00,
2013-01-04 01:49:00,51.1,49.4,30.61,West,270,0.0,0.0,94,0.00,,,0.00,pywws,2013-01-04 01:49:00,
2013-01-04 01:57:00,50.9,49.2,30.61,West,270,0.0,2.2,94,0.00,,,0.00,pywws,2013-01-04 01:57:00,
2013-01-04 02:02:00,50.9,48.9,30.61,SW,225,2.2,4.5,93,0.00,,,0.00,pywws,2013-01-04 02:02:00,
2013-01-04 02:08:00,50.7,48.8,30.61,South,180,0.0,2.2,93,0.00,,,0.00,pywws,2013-01-04 02:08:00,
2013-01-04 02:13:00,50.7,48.5,30.61,NW,315,2.2,4.5,92,0.00,,,0.00,pywws,2013-01-04 02:13:00,
2013-01-04 02:19:00,50.7,48.5,30.61,SSE,158,3.8,8.3,92,0.00,,,0.00,pywws,2013-01-04 02:19:00,
2013-01-04 02:25:00,50.7,48.5,30.62,SW,225,0.7,3.1,92,0.00,,,0.00,pywws,2013-01-04 02:25:00,
2013-01-04 02:30:00,50.7,48.2,30.61,West,270,0.7,3.1,91,0.00,,,0.00,pywws,2013-01-04 02:30:00,
2013-01-04 02:36:00,50.7,48.2,30.61,NW,315,3.1,4.5,91,0.00,,,0.00,pywws,2013-01-04 02:36:00,
2013-01-04 02:41:00,50.5,48.0,30.61,NW,315,0.0,0.7,91,0.00,,,0.00,pywws,2013-01-04 02:41:00,
2013-01-04 02:47:00,50.5,48.0,30.61,NW,315,0.7,3.8,91,0.00,,,0.00,pywws,2013-01-04 02:47:00,
2013-01-04 02:53:00,50.5,48.0,30.61,NW,315,2.2,6.0,91,0.00,,,0.00,pywws,2013-01-04 02:53:00,
2013-01-04 02:58:00,50.5,48.0,30.61,South,180,0.7,3.1,91,0.00,,,0.00,pywws,2013-01-04 02:58:00,
2013-01-04 03:04:00,50.5,48.0,30.61,West,270,3.8,6.0,91,0.00,,,0.00,pywws,2013-01-04 03:04:00,
2013-01-04 03:09:00,50.5,47.7,30.61,SW,225,2.2,6.0,90,0.00,,,0.00,pywws,2013-01-04 03:09:00,
2013-01-04 03:16:00,50.4,47.5,30.61,West,270,2.2,3.8,90,0.00,,,0.00,pywws,2013-01-04 03:16:00,
2013-01-04 03:21:00,50.4,47.5,30.62,SW,225,1.6,4.5,90,0.00,,,0.00,pywws,2013-01-04 03:21:00,
2013-01-04 03:27:00,50.4,47.5,30.62,West,270,3.1,6.0,90,0.00,,,0.00,pywws,2013-01-04 03:27:00,
2013-01-04 03:33:00,50.5,47.7,30.61,NW,315,2.2,4.5,90,0.00,,,0.00,pywws,2013-01-04 03:33:00,
2013-01-04 03:38:00,50.4,47.5,30.62,NW,315,2.2,5.4,90,0.00,,,0.00,pywws,2013-01-04 03:38:00,
2013-01-04 03:44:00,50.4,47.5,30.61,WNW,293,1.6,3.8,90,0.00,,,0.00,pywws,2013-01-04 03:44:00,
2013-01-04 03:49:00,50.4,47.5,30.61,ESE,113,1.6,3.8,90,0.00,,,0.00,pywws,2013-01-04 03:49:00,
2013-01-04 03:57:00,50.4,47.5,30.61,West,270,0.7,2.2,90,0.00,,,0.00,pywws,2013-01-04 03:57:00,
2013-01-04 04:02:00,50.4,47.5,30.62,NW,315,1.6,3.1,90,0.00,,,0.00,pywws,2013-01-04 04:02:00,
2013-01-04 04:08:00,50.4,47.5,30.62,NW,315,2.2,3.8,90,0.00,,,0.00,pywws,2013-01-04 04:08:00,
2013-01-04 04:13:00,50.4,47.5,30.62,SW,225,1.6,4.5,90,0.00,,,0.00,pywws,2013-01-04 04:13:00,
2013-01-04 04:19:00,50.4,47.5,30.62,NW,315,2.2,4.5,90,0.00,,,0.00,pywws,2013-01-04 04:19:00,
2013-01-04 04:25:00,50.4,47.5,30.61,NW,315,0.7,3.1,90,0.00,,,0.00,pywws,2013-01-04 04:25:00,
2013-01-04 04:30:00,50.4,47.5,30.61,North,0,1.6,4.5,90,0.00,,,0.00,pywws,2013-01-04 04:30:00,
2013-01-04 04:36:00,50.4,47.5,30.61,SW,225,0.0,2.2,90,0.00,,,0.00,pywws,2013-01-04 04:36:00,
2013-01-04 04:41:00,50.4,47.5,30.61,NW,315,3.1,8.3,90,0.00,,,0.00,pywws,2013-01-04 04:41:00,
2013-01-04 04:47:00,50.4,47.5,30.61,West,270,3.1,6.9,90,0.00,,,0.00,pywws,2013-01-04 04:47:00,
2013-01-04 04:53:00,50.4,47.5,30.61,South,180,3.1,5.4,90,0.00,,,0.00,pywws,2013-01-04 04:53:00,
2013-01-04 04:58:00,50.4,47.2,30.61,NNW,338,3.1,6.0,89,0.00,,,0.00,pywws,2013-01-04 04:58:00,
2013-01-04 05:00:00,50.4,47.2,30.61,West,270,0.7,4.5,89,0.00,,,0.00,pywws,2013-01-04 05:00:00,
2013-01-04 05:01:00,50.4,47.2,30.61,West,270,3.1,7.6,89,0.00,,,0.00,pywws,2013-01-04 05:01:00,
2013-01-04 05:04:00,50.4,47.2,30.60,South,180,3.1,5.4,89,0.00,,,0.00,pywws,2013-01-04 05:04:00,
2013-01-04 05:05:00,50.4,47.2,30.61,SW,225,0.7,3.1,89,0.00,,,0.00,pywws,2013-01-04 05:05:00,
2013-01-04 05:11:00,50.4,47.2,30.61,SW,225,0.7,3.1,89,0.00,,,0.00,pywws,2013-01-04 05:11:00,
2013-01-04 05:17:00,50.2,47.1,30.61,West,270,1.6,4.5,89,0.00,,,0.00,pywws,2013-01-04 05:17:00,
2013-01-04 05:22:00,50.4,47.2,30.61,SW,225,3.1,4.5,89,0.00,,,0.00,pywws,2013-01-04 05:22:00,
2013-01-04 05:28:00,50.4,47.2,30.61,SW,225,1.6,3.1,89,0.00,,,0.00,pywws,2013-01-04 05:28:00,
2013-01-04 05:33:00,50.4,47.2,30.60,West,270,3.8,6.9,89,0.00,,,0.00,pywws,2013-01-04 05:33:00,
2013-01-04 05:39:00,50.2,46.8,30.61,NW,315,0.7,3.8,88,0.00,,,0.00,pywws,2013-01-04 05:39:00,
2013-01-04 05:45:00,50.2,46.8,30.61,North,0,1.6,3.8,88,0.00,,,0.00,pywws,2013-01-04 05:45:00,
2013-01-04 05:50:00,50.2,46.8,30.61,North,0,2.2,5.4,88,0.00,,,0.00,pywws,2013-01-04 05:50:00,
2013-01-04 05:57:00,50.4,46.9,30.61,WSW,248,0.7,3.1,88,0.00,,,0.00,pywws,2013-01-04 05:57:00,
2013-01-04 06:02:00,50.2,46.8,30.61,West,270,3.1,6.0,88,0.00,,,0.00,pywws,2013-01-04 06:02:00,
2013-01-04 06:08:00,50.2,46.8,30.61,NW,315,1.6,3.8,88,0.00,,,0.00,pywws,2013-01-04 06:08:00,
2013-01-04 06:13:00,50.2,46.5,30.61,NNE,23,0.7,3.1,87,0.00,,,0.00,pywws,2013-01-04 06:13:00,
2013-01-04 06:19:00,50.2,46.5,30.62,West,270,1.6,6.0,87,0.00,,,0.00,pywws,2013-01-04 06:19:00,
2013-01-04 06:25:00,50.2,46.5,30.62,SW,225,1.6,4.5,87,0.00,,,0.00,pywws,2013-01-04 06:25:00,
2013-01-04 06:30:00,50.2,46.5,30.61,NW,315,4.5,9.2,87,0.00,,,0.00,pywws,2013-01-04 06:30:00,
2013-01-04 06:36:00,50.2,46.2,30.62,North,0,5.4,13.0,86,0.00,,,0.00,pywws,2013-01-04 06:36:00,
2013-01-04 06:41:00,50.2,46.2,30.62,North,0,0.0,3.1,86,0.00,,,0.00,pywws,2013-01-04 06:41:00,
2013-01-04 06:47:00,50.0,46.0,30.62,South,180,2.2,5.4,86,0.00,,,0.00,pywws,2013-01-04 06:47:00,
2013-01-04 06:53:00,50.0,46.0,30.62,SW,225,3.1,8.3,86,0.00,,,0.00,pywws,2013-01-04 06:53:00,
2013-01-04 06:58:00,50.0,46.0,30.62,NW,315,2.2,6.0,86,0.00,,,0.00,pywws,2013-01-04 06:58:00,
2013-01-04 07:04:00,50.0,46.0,30.62,SSE,158,2.2,5.4,86,0.00,,,0.00,pywws,2013-01-04 07:04:00,
2013-01-04 07:09:00,50.0,46.0,30.62,NW,315,0.7,2.2,86,0.00,,,0.00,pywws,2013-01-04 07:09:00,
2013-01-04 07:16:00,50.0,46.0,30.62,West,270,1.6,3.1,86,0.00,,,0.00,pywws,2013-01-04 07:16:00,
2013-01-04 07:22:00,50.0,46.0,30.62,NW,315,2.2,6.0,86,0.00,,,0.00,pywws,2013-01-04 07:22:00,
2013-01-04 07:28:00,50.0,46.0,30.62,NW,315,0.0,1.6,86,0.00,,,0.00,pywws,2013-01-04 07:28:00,
2013-01-04 07:33:00,49.8,45.8,30.63,NW,315,0.0,1.6,86,0.00,,,0.00,pywws,2013-01-04 07:33:00,
2013-01-04 07:39:00,49.8,45.8,30.63,NW,315,0.7,3.1,86,0.00,,,0.00,pywws,2013-01-04 07:39:00,
2013-01-04 07:45:00,49.8,45.5,30.62,WNW,293,3.1,6.0,85,0.00,,,0.00,pywws,2013-01-04 07:45:00,
2013-01-04 07:50:00,49.8,45.5,30.62,North,0,3.1,6.0,85,0.00,,,0.00,pywws,2013-01-04 07:50:00,
2013-01-04 07:57:00,49.6,45.3,30.63,West,270,0.7,3.8,85,0.00,,,0.00,pywws,2013-01-04 07:57:00,
2013-01-04 08:02:00,49.6,45.3,30.63,WSW,248,1.6,6.9,85,0.00,,,0.00,pywws,2013-01-04 08:02:00,
2013-01-04 08:08:00,49.8,45.5,30.63,SW,225,1.6,5.4,85,0.00,,,0.00,pywws,2013-01-04 08:08:00,
2013-01-04 08:13:00,49.6,45.3,30.63,North,0,1.6,3.8,85,0.00,,,0.00,pywws,2013-01-04 08:13:00,
2013-01-04 08:19:00,49.6,45.3,30.63,South,180,0.7,3.1,85,0.00,,,0.00,pywws,2013-01-04 08:19:00,
2013-01-04 08:25:00,49.6,45.3,30.63,East,90,0.7,3.8,85,0.00,,,0.00,pywws,2013-01-04 08:25:00,
2013-01-04 08:30:00,49.6,45.3,30.63,SW,225,2.2,5.4,85,0.00,,,0.00,pywws,2013-01-04 08:30:00,
2013-01-04 08:36:00,49.8,45.5,30.63,SW,225,3.1,6.0,85,0.00,,,0.00,pywws,2013-01-04 08:36:00,
2013-01-04 08:41:00,49.8,45.5,30.63,West,270,3.8,9.2,85,0.00,,,0.00,pywws,2013-01-04 08:41:00,
2013-01-04 08:47:00,49.8,45.2,30.63,SW,225,3.1,6.9,84,0.00,,,0.00,pywws,2013-01-04 08:47:00,
2013-01-04 08:53:00,49.8,45.2,30.62,SW,225,0.7,3.1,84,0.00,,,0.00,pywws,2013-01-04 08:53:00,
2013-01-04 08:58:00,49.8,45.2,30.63,West,270,1.6,3.1,84,0.00,,,0.00,pywws,2013-01-04 08:58:00,
2013-01-04 09:04:00,50.0,45.4,30.63,East,90,1.6,4.5,84,0.00,,,0.00,pywws,2013-01-04 09:04:00,
2013-01-04 09:09:00,50.2,45.5,30.63,NE,45,0.7,3.8,84,0.00,,,0.00,pywws,2013-01-04 09:09:00,
2013-01-04 09:16:00,50.5,45.6,30.63,SW,225,1.6,4.5,83,0.00,,,0.00,pywws,2013-01-04 09:16:00,
2013-01-04 09:21:00,50.7,45.4,30.63,SW,225,2.2,5.4,82,0.00,,,0.00,pywws,2013-01-04 09:21:00,
2013-01-04 09:27:00,50.7,45.1,30.63,NW,315,2.2,6.0,81,0.00,,,0.00,pywws,2013-01-04 09:27:00,
2013-01-04 09:33:00,50.9,45.6,30.63,NW,315,3.8,7.6,82,0.00,,,0.00,pywws,2013-01-04 09:33:00,
2013-01-04 09:38:00,50.9,45.3,30.63,SSW,203,3.1,5.4,81,0.00,,,0.00,pywws,2013-01-04 09:38:00,
2013-01-04 09:44:00,50.9,45.3,30.63,NW,315,1.6,5.4,81,0.00,,,0.00,pywws,2013-01-04 09:44:00,
2013-01-04 09:49:00,51.1,45.5,30.65,SE,135,2.2,4.5,81,0.00,,,0.00,pywws,2013-01-04 09:49:00,
2013-01-04 09:57:00,51.1,45.5,30.64,NW,315,1.6,5.4,81,0.00,,,0.00,pywws,2013-01-04 09:57:00,
2013-01-04 10:02:00,51.1,45.5,30.64,SW,225,2.2,6.0,81,0.00,,,0.00,pywws,2013-01-04 10:02:00,
2013-01-04 10:08:00,51.1,45.5,30.65,NW,315,2.2,5.4,81,0.00,,,0.00,pywws,2013-01-04 10:08:00,
2013-01-04 10:13:00,51.1,45.1,30.64,West,270,3.1,5.4,80,0.00,,,0.00,pywws,2013-01-04 10:13:00,
2013-01-04 10:19:00,51.3,45.3,30.64,NW,315,3.1,9.2,80,0.00,,,0.00,pywws,2013-01-04 10:19:00,
2013-01-04 10:25:00,51.3,45.3,30.64,NW,315,1.6,4.5,80,0.00,,,0.00,pywws,2013-01-04 10:25:00,
2013-01-04 10:30:00,51.4,45.5,30.64,West,270,3.1,6.9,80,0.00,,,0.00,pywws,2013-01-04 10:30:00,
2013-01-04 10:36:00,51.4,45.5,30.65,SW,225,1.6,3.8,80,0.00,,,0.00,pywws,2013-01-04 10:36:00,
2013-01-04 10:41:00,51.4,45.5,30.64,NW,315,3.1,6.0,80,0.00,,,0.00,pywws,2013-01-04 10:41:00,
2013-01-04 10:47:00,51.4,45.5,30.65,NW,315,2.2,6.0,80,0.00,,,0.00,pywws,2013-01-04 10:47:00,
2013-01-04 10:53:00,51.4,45.5,30.64,SW,225,1.6,3.1,80,0.00,,,0.00,pywws,2013-01-04 10:53:00,
2013-01-04 10:58:00,51.4,45.5,30.64,South,180,1.6,4.5,80,0.00,,,0.00,pywws,2013-01-04 10:58:00,
2013-01-04 11:04:00,51.4,45.5,30.64,NW,315,2.2,5.4,80,0.00,,,0.00,pywws,2013-01-04 11:04:00,
2013-01-04 11:09:00,51.6,45.7,30.64,NW,315,3.1,5.4,80,0.00,,,0.00,pywws,2013-01-04 11:09:00,
2013-01-04 11:16:00,51.6,45.7,30.64,North,0,2.2,4.5,80,0.00,,,0.00,pywws,2013-01-04 11:16:00,
2013-01-04 11:21:00,51.6,45.3,30.63,NNW,338,2.2,6.0,79,0.00,,,0.00,pywws,2013-01-04 11:21:00,
2013-01-04 11:27:00,51.6,45.3,30.63,NE,45,2.2,6.0,79,0.00,,,0.00,pywws,2013-01-04 11:27:00,
2013-01-04 11:33:00,51.8,45.5,30.63,South,180,1.6,3.1,79,0.00,,,0.00,pywws,2013-01-04 11:33:00,
2013-01-04 11:38:00,52.0,45.7,30.63,WSW,248,3.1,5.4,79,0.00,,,0.00,pywws,2013-01-04 11:38:00,
2013-01-04 11:44:00,52.2,45.8,30.63,NW,315,0.7,4.5,79,0.00,,,0.00,pywws,2013-01-04 11:44:00,
2013-01-04 11:49:00,52.5,45.5,30.63,NW,315,3.1,7.6,77,0.00,,,0.00,pywws,2013-01-04 11:49:00,
2013-01-04 11:57:00,52.2,45.5,30.63,West,270,2.2,6.0,78,0.00,,,0.00,pywws,2013-01-04 11:57:00,
2013-01-04 12:02:00,52.2,45.8,30.63,SW,225,2.2,5.4,79,0.00,,,0.00,pywws,2013-01-04 12:02:00,
2013-01-04 12:08:00,52.3,46.0,30.63,West,270,4.5,9.2,79,0.00,,,0.00,pywws,2013-01-04 12:08:00,
2013-01-04 12:13:00,52.3,46.4,30.63,North,0,3.1,6.0,80,0.00,,,0.00,pywws,2013-01-04 12:13:00,
2013-01-04 12:19:00,52.2,46.5,30.63,SSW,203,0.7,2.2,81,0.00,,,0.00,pywws,2013-01-04 12:19:00,
2013-01-04 12:25:00,52.2,46.5,30.62,North,0,3.1,5.4,81,0.00,,,0.00,pywws,2013-01-04 12:25:00,
2013-01-04 12:30:00,52.0,46.7,30.62,West,270,4.5,9.8,82,0.00,,,0.00,pywws,2013-01-04 12:30:00,
2013-01-04 12:36:00,52.0,47.0,30.62,West,270,3.8,6.9,83,0.00,,,0.00,pywws,2013-01-04 12:36:00,
2013-01-04 12:41:00,51.8,46.8,30.63,NNW,338,2.2,4.5,83,0.00,,,0.00,pywws,2013-01-04 12:41:00,
2013-01-04 12:47:00,51.8,47.1,30.62,NW,315,3.1,8.3,84,0.00,,,0.00,pywws,2013-01-04 12:47:00,
2013-01-04 12:53:00,51.8,47.1,30.62,SSW,203,0.7,3.8,84,0.00,,,0.00,pywws,2013-01-04 12:53:00,
2013-01-04 12:58:00,51.8,47.1,30.62,NW,315,2.2,4.5,84,0.00,,,0.00,pywws,2013-01-04 12:58:00,
2013-01-04 13:04:00,51.8,47.1,30.61,NW,315,1.6,6.9,84,0.00,,,0.00,pywws,2013-01-04 13:04:00,
2013-01-04 13:09:00,52.0,47.3,30.61,NW,315,0.7,2.2,84,0.00,,,0.00,pywws,2013-01-04 13:09:00,
2013-01-04 13:16:00,52.0,47.0,30.61,NW,315,3.8,10.7,83,0.00,,,0.00,pywws,2013-01-04 13:16:00,
2013-01-04 13:21:00,51.8,47.1,30.61,West,270,1.6,4.5,84,0.00,,,0.00,pywws,2013-01-04 13:21:00,
2013-01-04 13:27:00,52.0,47.3,30.61,West,270,1.6,3.8,84,0.00,,,0.00,pywws,2013-01-04 13:27:00,
2013-01-04 13:33:00,51.8,47.1,30.61,South,180,3.8,7.6,84,0.00,,,0.00,pywws,2013-01-04 13:33:00,
2013-01-04 13:38:00,51.8,47.1,30.61,SW,225,3.8,7.6,84,0.00,,,0.00,pywws,2013-01-04 13:38:00,
2013-01-04 13:44:00,51.8,47.1,30.61,West,270,1.6,4.5,84,0.00,,,0.00,pywws,2013-01-04 13:44:00,
2013-01-04 13:50:00,51.8,47.1,30.61,SW,225,2.2,5.4,84,0.00,,,0.00,pywws,2013-01-04 13:50:00,
2013-01-04 13:57:00,51.8,47.4,30.61,SW,225,3.8,9.8,85,0.00,,,0.00,pywws,2013-01-04 13:57:00,
2013-01-04 14:02:00,51.8,47.7,30.61,WNW,293,1.6,6.9,86,0.00,,,0.00,pywws,2013-01-04 14:02:00,
2013-01-04 14:08:00,51.8,47.7,30.60,West,270,2.2,6.0,86,0.00,,,0.00,pywws,2013-01-04 14:08:00,
2013-01-04 14:13:00,51.8,47.7,30.60,SW,225,2.2,5.4,86,0.00,,,0.00,pywws,2013-01-04 14:13:00,
2013-01-04 14:19:00,52.0,47.9,30.60,North,0,5.4,8.3,86,0.00,,,0.00,pywws,2013-01-04 14:19:00,
2013-01-04 14:25:00,51.8,47.7,30.60,SW,225,3.1,7.6,86,0.00,,,0.00,pywws,2013-01-04 14:25:00,
2013-01-04 14:30:00,51.8,47.7,30.60,NW,315,3.1,6.0,86,0.00,,,0.00,pywws,2013-01-04 14:30:00,
2013-01-04 14:36:00,51.6,47.9,30.60,SW,225,2.2,3.8,87,0.00,,,0.00,pywws,2013-01-04 14:36:00,
2013-01-04 14:41:00,51.6,47.9,30.60,NW,315,3.1,5.4,87,0.00,,,0.00,pywws,2013-01-04 14:41:00,
2013-01-04 14:47:00,51.6,47.9,30.60,West,270,0.7,3.1,87,0.00,,,0.00,pywws,2013-01-04 14:47:00,
2013-01-04 14:53:00,51.6,47.9,30.60,NW,315,0.7,3.1,87,0.00,,,0.00,pywws,2013-01-04 14:53:00,
2013-01-04 14:59:00,51.6,47.9,30.61,NNW,338,1.6,2.2,87,0.00,,,0.00,pywws,2013-01-04 14:59:00,
2013-01-04 15:05:00,51.6,47.9,30.60,NW,315,0.7,2.2,87,0.00,,,0.00,pywws,2013-01-04 15:05:00,
2013-01-04 15:10:00,51.6,48.2,30.61,NNW,338,0.7,3.8,88,0.00,,,0.00,pywws,2013-01-04 15:10:00,
2013-01-04 15:16:00,51.4,48.0,30.61,SW,225,1.6,3.8,88,0.00,,,0.00,pywws,2013-01-04 15:16:00,
2013-01-04 15:21:00,51.4,48.0,30.60,NW,315,0.7,5.4,88,0.00,,,0.00,pywws,2013-01-04 15:21:00,
2013-01-04 15:27:00,51.3,47.8,30.61,NW,315,1.6,5.4,88,0.00,,,0.00,pywws,2013-01-04 15:27:00,
2013-01-04 15:33:00,51.3,47.8,30.61,NW,315,0.7,4.5,88,0.00,,,0.00,pywws,2013-01-04 15:33:00,
2013-01-04 15:38:00,51.3,47.8,30.61,SSW,203,1.6,4.5,88,0.00,,,0.00,pywws,2013-01-04 15:38:00,
2013-01-04 15:44:00,51.3,48.1,30.61,NW,315,1.6,3.8,89,0.00,,,0.00,pywws,2013-01-04 15:44:00,
2013-01-04 15:49:00,51.1,48.0,30.61,North,0,0.0,2.2,89,0.00,,,0.00,pywws,2013-01-04 15:49:00,
2013-01-04 15:57:00,51.1,48.0,30.61,North,0,0.7,2.2,89,0.00,,,0.00,pywws,2013-01-04 15:57:00,
2013-01-04 16:02:00,51.1,48.0,30.61,NW,315,2.2,6.0,89,0.00,,,0.00,pywws,2013-01-04 16:02:00,
2013-01-04 16:08:00,51.1,48.2,30.61,North,0,1.6,3.8,90,0.00,,,0.00,pywws,2013-01-04 16:08:00,
2013-01-04 16:13:00,51.1,48.2,30.61,NW,315,0.7,5.4,90,0.00,,,0.00,pywws,2013-01-04 16:13:00,
2013-01-04 16:19:00,51.1,48.2,30.61,NW,315,1.6,4.5,90,0.00,,,0.00,pywws,2013-01-04 16:19:00,
2013-01-04 16:25:00,51.1,48.2,30.62,NW,315,0.7,4.5,90,0.00,,,0.00,pywws,2013-01-04 16:25:00,
2013-01-04 16:30:00,51.1,48.2,30.61,SW,225,0.7,3.8,90,0.00,,,0.00,pywws,2013-01-04 16:30:00,
2013-01-04 16:36:00,50.9,48.4,30.61,West,270,3.1,5.4,91,0.00,,,0.00,pywws,2013-01-04 16:36:00,
2013-01-04 16:41:00,51.1,48.5,30.61,West,270,2.2,4.5,91,0.00,,,0.00,pywws,2013-01-04 16:41:00,
2013-01-04 16:47:00,50.9,48.4,30.61,SW,225,0.7,3.8,91,0.00,,,0.00,pywws,2013-01-04 16:47:00,
2013-01-04 16:53:00,50.7,48.2,30.61,West,270,2.2,5.4,91,0.00,,,0.00,pywws,2013-01-04 16:53:00,
2013-01-04 16:58:00,50.7,48.2,30.61,NNE,23,2.2,6.0,91,0.00,,,0.00,pywws,2013-01-04 16:58:00,
2013-01-04 17:04:00,50.5,48.0,30.61,SW,225,2.2,4.5,91,0.00,,,0.00,pywws,2013-01-04 17:04:00,
2013-01-04 17:09:00,50.5,48.3,30.61,SW,225,1.6,3.8,92,0.00,,,0.00,pywws,2013-01-04 17:09:00,
2013-01-04 17:16:00,50.5,48.3,30.61,South,180,0.0,2.2,92,0.00,,,0.00,pywws,2013-01-04 17:16:00,
2013-01-04 17:21:00,50.4,48.1,30.61,NE,45,0.7,3.1,92,0.00,,,0.00,pywws,2013-01-04 17:21:00,
2013-01-04 17:27:00,50.4,48.1,30.61,NNE,23,2.2,4.5,92,0.00,,,0.00,pywws,2013-01-04 17:27:00,
2013-01-04 17:33:00,50.4,48.1,30.60,NW,315,3.1,5.4,92,0.00,,,0.00,pywws,2013-01-04 17:33:00,
2013-01-04 17:38:00,50.4,48.1,30.60,NW,315,2.2,5.4,92,0.00,,,0.00,pywws,2013-01-04 17:38:00,
2013-01-04 17:44:00,50.2,47.9,30.61,West,270,0.7,3.1,92,0.00,,,0.00,pywws,2013-01-04 17:44:00,
2013-01-04 17:49:00,50.4,48.1,30.60,NW,315,1.6,4.5,92,0.00,,,0.00,pywws,2013-01-04 17:49:00,
2013-01-04 17:57:00,50.2,47.9,30.60,East,90,0.7,3.8,92,0.00,,,0.00,pywws,2013-01-04 17:57:00,
2013-01-04 18:02:00,50.2,47.9,30.60,NW,315,2.2,3.8,92,0.00,,,0.00,pywws,2013-01-04 18:02:00,
2013-01-04 18:08:00,50.2,47.9,30.60,West,270,1.6,3.1,92,0.00,,,0.00,pywws,2013-01-04 18:08:00,
2013-01-04 18:13:00,50.2,48.2,30.60,South,180,0.0,0.0,93,0.00,,,0.00,pywws,2013-01-04 18:13:00,
2013-01-04 18:19:00,50.2,48.2,30.60,West,270,0.0,2.2,93,0.00,,,0.00,pywws,2013-01-04 18:19:00,
2013-01-04 18:25:00,50.2,48.2,30.60,West,270,0.7,3.1,93,0.00,,,0.00,pywws,2013-01-04 18:25:00,
2013-01-04 18:30:00,50.0,48.1,30.60,West,270,0.0,0.0,93,0.00,,,0.00,pywws,2013-01-04 18:30:00,
2013-01-04 18:36:00,50.0,48.1,30.60,SSW,203,0.0,0.7,93,0.00,,,0.00,pywws,2013-01-04 18:36:00,
2013-01-04 18:41:00,50.0,48.3,30.60,SW,225,0.0,1.6,94,0.00,,,0.00,pywws,2013-01-04 18:41:00,
2013-01-04 18:47:00,50.0,48.3,30.61,NW,315,1.6,6.9,94,0.00,,,0.00,pywws,2013-01-04 18:47:00,
2013-01-04 18:53:00,50.0,48.3,30.60,West,270,0.7,2.2,94,0.00,,,0.00,pywws,2013-01-04 18:53:00,
2013-01-04 18:58:00,49.8,48.2,30.61,North,0,1.6,4.5,94,0.00,,,0.00,pywws,2013-01-04 18:58:00,
2013-01-04 19:04:00,49.8,48.2,30.61,ENE,68,2.2,5.4,94,0.00,,,0.00,pywws,2013-01-04 19:04:00,
2013-01-04 19:09:00,49.8,48.2,30.61,SW,225,0.7,2.2,94,0.00,,,0.00,pywws,2013-01-04 19:09:00,
2013-01-04 19:16:00,49.8,48.2,30.61,West,270,0.0,1.6,94,0.00,,,0.00,pywws,2013-01-04 19:16:00,
2013-01-04 19:21:00,49.8,48.2,30.61,West,270,0.0,3.1,94,0.00,,,0.00,pywws,2013-01-04 19:21:00,
2013-01-04 19:27:00,49.8,48.2,30.61,West,270,0.7,2.2,94,0.00,,,0.00,pywws,2013-01-04 19:27:00,
2013-01-04 19:33:00,49.8,48.2,30.61,South,180,0.0,0.0,94,0.00,,,0.00,pywws,2013-01-04 19:33:00,
2013-01-04 19:38:00,49.8,48.2,30.61,South,180,1.6,4.5,94,0.00,,,0.00,pywws,2013-01-04 19:38:00,
2013-01-04 19:44:00,49.6,48.3,30.61,SW,225,1.6,3.8,95,0.00,,,0.00,pywws,2013-01-04 19:44:00,
2013-01-04 19:49:00,49.6,48.3,30.61,North,0,2.2,6.0,95,0.00,,,0.00,pywws,2013-01-04 19:49:00,
2013-01-04 19:57:00,49.5,48.1,30.61,WSW,248,2.2,8.3,95,0.00,,,0.00,pywws,2013-01-04 19:57:00,
2013-01-04 20:02:00,49.5,48.1,30.61,NE,45,0.0,1.6,95,0.00,,,0.00,pywws,2013-01-04 20:02:00,
2013-01-04 20:08:00,49.5,48.1,30.61,SW,225,1.6,6.0,95,0.00,,,0.00,pywws,2013-01-04 20:08:00,
2013-01-04 20:13:00,49.3,47.9,30.61,South,180,3.1,7.6,95,0.00,,,0.00,pywws,2013-01-04 20:13:00,
2013-01-04 20:19:00,49.3,47.9,30.61,ESE,113,2.2,5.4,95,0.00,,,0.00,pywws,2013-01-04 20:19:00,
2013-01-04 20:25:00,49.1,47.7,30.61,NW,315,0.0,2.2,95,0.00,,,0.00,pywws,2013-01-04 20:25:00,
2013-01-04 20:30:00,49.1,48.0,30.61,NW,315,0.0,1.6,96,0.00,,,0.00,pywws,2013-01-04 20:30:00,
2013-01-04 20:36:00,49.1,48.0,30.61,North,0,1.6,4.5,96,0.00,,,0.00,pywws,2013-01-04 20:36:00,
2013-01-04 20:41:00,49.1,48.0,30.61,NW,315,1.6,3.8,96,0.00,,,0.00,pywws,2013-01-04 20:41:00,
2013-01-04 20:47:00,49.1,48.0,30.60,NNE,23,0.0,1.6,96,0.00,,,0.00,pywws,2013-01-04 20:47:00,
2013-01-04 20:53:00,49.1,48.0,30.60,South,180,0.0,1.6,96,0.00,,,0.00,pywws,2013-01-04 20:53:00,
2013-01-04 20:58:00,49.1,48.0,30.61,SW,225,0.0,0.0,96,0.00,,,0.00,pywws,2013-01-04 20:58:00,
2013-01-04 21:04:00,49.1,48.3,30.60,SW,225,1.6,7.6,97,0.00,,,0.00,pywws,2013-01-04 21:04:00,
2013-01-04 21:09:00,48.9,47.8,30.61,North,0,0.7,3.1,96,0.00,,,0.00,pywws,2013-01-04 21:09:00,
2013-01-04 21:16:00,48.9,48.1,30.60,West,270,1.6,4.5,97,0.00,,,0.00,pywws,2013-01-04 21:16:00,
2013-01-04 21:21:00,48.7,47.9,30.60,NW,315,2.2,4.5,97,0.00,,,0.00,pywws,2013-01-04 21:21:00,
2013-01-04 21:27:00,48.7,47.9,30.60,West,270,0.7,5.4,97,0.00,,,0.00,pywws,2013-01-04 21:27:00,
2013-01-04 21:33:00,48.7,47.9,30.60,SE,135,0.0,1.6,97,0.00,,,0.00,pywws,2013-01-04 21:33:00,
2013-01-04 21:38:00,48.7,47.9,30.60,West,270,1.6,4.5,97,0.00,,,0.00,pywws,2013-01-04 21:38:00,
2013-01-04 21:44:00,48.6,47.7,30.60,SE,135,2.2,4.5,97,0.00,,,0.00,pywws,2013-01-04 21:44:00,
2013-01-04 21:49:00,48.6,47.7,30.60,West,270,1.6,3.1,97,0.00,,,0.00,pywws,2013-01-04 21:49:00,
2013-01-04 21:57:00,48.4,47.6,30.60,NW,315,4.5,8.3,97,0.00,,,0.00,pywws,2013-01-04 21:57:00,
2013-01-04 22:02:00,48.4,47.6,30.60,South,180,1.6,4.5,97,0.00,,,0.00,pywws,2013-01-04 22:02:00,
2013-01-04 22:08:00,48.2,47.4,30.60,NW,315,1.6,3.8,97,0.00,,,0.00,pywws,2013-01-04 22:08:00,
2013-01-04 22:13:00,48.2,47.4,30.60,SW,225,0.7,2.2,97,0.00,,,0.00,pywws,2013-01-04 22:13:00,
2013-01-04 22:19:00,48.0,47.2,30.60,NW,315,0.7,6.0,97,0.00,,,0.00,pywws,2013-01-04 22:19:00,
2013-01-04 22:25:00,48.0,47.2,30.60,West,270,1.6,5.4,97,0.00,,,0.00,pywws,2013-01-04 22:25:00,
2013-01-04 22:30:00,48.0,47.2,30.59,SW,225,0.0,3.1,97,0.00,,,0.00,pywws,2013-01-04 22:30:00,
2013-01-04 22:36:00,48.0,47.2,30.60,North,0,1.6,5.4,97,0.00,,,0.00,pywws,2013-01-04 22:36:00,
2013-01-04 22:41:00,47.8,47.0,30.60,ESE,113,0.7,2.2,97,0.00,,,0.00,pywws,2013-01-04 22:41:00,
2013-01-04 22:47:00,47.8,47.0,30.60,West,270,1.6,3.8,97,0.00,,,0.00,pywws,2013-01-04 22:47:00,
2013-01-04 22:53:00,47.8,47.0,30.60,NW,315,2.2,5.4,97,0.00,,,0.00,pywws,2013-01-04 22:53:00,
2013-01-04 22:58:00,47.8,47.3,30.60,SW,225,0.7,3.1,98,0.00,,,0.00,pywws,2013-01-04 22:58:00,
2013-01-04 23:04:00,47.8,47.3,30.59,ENE,68,0.0,1.6,98,0.00,,,0.00,pywws,2013-01-04 23:04:00,
2013-01-04 23:09:00,47.7,47.1,30.59,West,270,2.2,5.4,98,0.00,,,0.00,pywws,2013-01-04 23:09:00,
2013-01-04 23:16:00,47.7,47.1,30.60,SW,225,0.0,0.0,98,0.00,,,0.00,pywws,2013-01-04 23:16:00,
2013-01-04 23:21:00,47.7,47.1,30.60,WNW,293,2.2,5.4,98,0.00,,,0.00,pywws,2013-01-04 23:21:00,
2013-01-04 23:27:00,47.7,47.1,30.60,NW,315,0.0,2.2,98,0.00,,,0.00,pywws,2013-01-04 23:27:00,
2013-01-04 23:33:00,47.7,47.1,30.60,NNW,338,3.8,7.6,98,0.00,,,0.00,pywws,2013-01-04 23:33:00,
2013-01-04 23:38:00,47.7,47.1,30.60,SW,225,0.0,2.2,98,0.00,,,0.00,pywws,2013-01-04 23:38:00,
2013-01-04 23:44:00,47.7,47.1,30.60,SW,225,0.0,1.6,98,0.00,,,0.00,pywws,2013-01-04 23:44:00,
2013-01-04 23:49:00,47.5,46.9,30.60,South,180,1.6,5.4,98,0.00,,,0.00,pywws,2013-01-04 23:49:00,
2013-01-04 23:57:00,47.5,46.9,30.59,West,270,0.7,3.1,98,0.00,,,0.00,pywws,2013-01-04 23:57:00,